Time,TemperatureF,DewpointF,PressureIn,WindDirection,WindDirectionDegrees,WindSpeedMPH,WindSpeedGustMPH,Humidity,HourlyPrecipIn,Conditions,Clouds,dailyrainin,SoftwareType,DateUTC
2013-10-11 00:01:00,57.1,52.0,30.07,NE,44,2.0,6.0,83,0.00,,,0.02,VWS V14.01,2013-10-11 04:01:00,
2013-10-11 00:06:00,57.1,52.3,30.07,NE,34,0.0,4.0,84,0.00,,,0.00,VWS V14.01,2013-10-11 04:06:00,
2013-10-11 00:11:00,57.1,52.3,30.07,NE,40,1.0,5.0,84,0.00,,,0.00,VWS V14.01,2013-10-11 04:11:00,
2013-10-11 00:16:00,57.1,52.3,30.07,NE,44,0.0,4.0,84,0.00,,,0.00,VWS V14.01,2013-10-11 04:16:00,
2013-10-11 00:21:00,57.1,52.3,30.07,NE,41,0.0,4.0,84,0.00,,,0.00,VWS V14.01,2013-10-11 04:21:00,
2013-10-11 00:26:00,57.2,52.4,30.07,NNE,28,0.0,3.0,84,0.00,,,0.00,VWS V14.01,2013-10-11 04:26:00,
2013-10-11 00:31:00,57.2,52.7,30.07,NNE,27,0.0,3.0,85,0.00,,,0.00,VWS V14.01,2013-10-11 04:31:00,
2013-10-11 00:36:00,57.3,52.8,30.07,NNE,29,0.0,3.0,85,0.00,,,0.00,VWS V14.01,2013-10-11 04:36:00,
2013-10-11 00:41:00,57.3,52.8,30.07,NNE,32,0.0,3.0,85,0.00,,,0.00,VWS V14.01,2013-10-11 04:41:00,
2013-10-11 00:46:00,57.2,52.7,30.07,NNE,32,0.0,2.0,85,0.00,,,0.00,VWS V14.01,2013-10-11 04:46:00,
2013-10-11 00:51:00,57.2,52.7,30.07,NE,34,1.0,5.0,85,0.00,,,0.00,VWS V14.01,2013-10-11 04:51:00,
2013-10-11 00:56:00,57.3,52.8,30.07,NE,38,0.0,3.0,85,0.00,,,0.00,VWS V14.01,2013-10-11 04:56:00,
2013-10-11 01:01:00,57.2,52.7,30.07,NE,42,1.0,3.0,85,0.00,,,0.00,VWS V14.01,2013-10-11 05:01:00,
2013-10-11 01:06:00,57.2,52.7,30.07,NE,42,0.0,2.0,85,0.00,,,0.00,VWS V14.01,2013-10-11 05:06:00,
2013-10-11 01:11:00,57.2,52.7,30.07,NE,42,0.0,2.0,85,0.00,,,0.00,VWS V14.01,2013-10-11 05:11:00,
2013-10-11 01:16:00,57.1,52.3,30.06,NE,42,0.0,2.0,84,0.00,,,0.00,VWS V14.01,2013-10-11 05:16:00,
2013-10-11 01:21:00,57.1,52.3,30.06,NE,42,1.0,2.0,84,0.00,,,0.00,VWS V14.01,2013-10-11 05:21:00,
2013-10-11 01:26:00,57.0,52.2,30.06,NE,43,0.0,3.0,84,0.00,,,0.00,VWS V14.01,2013-10-11 05:26:00,
2013-10-11 01:31:00,57.0,52.5,30.06,NE,47,0.0,3.0,85,0.00,,,0.00,VWS V14.01,2013-10-11 05:31:00,
2013-10-11 01:36:00,57.0,52.5,30.06,NE,42,1.0,4.0,85,0.00,,,0.00,VWS V14.01,2013-10-11 05:36:00,
2013-10-11 01:41:00,57.0,52.5,30.06,East,80,1.0,4.0,85,0.00,,,0.00,VWS V14.01,2013-10-11 05:41:00,
2013-10-11 01:46:00,57.1,52.6,30.06,NE,48,2.0,3.0,85,0.00,,,0.00,VWS V14.01,2013-10-11 05:46:00,
2013-10-11 01:51:00,57.1,52.6,30.06,NE,47,2.0,3.0,85,0.00,,,0.00,VWS V14.01,2013-10-11 05:51:00,
2013-10-11 01:56:00,57.1,52.6,30.06,North,355,0.0,3.0,85,0.00,,,0.00,VWS V14.01,2013-10-11 05:56:00,
2013-10-11 02:01:00,57.1,52.6,30.06,NNE,32,2.0,3.0,85,0.00,,,0.00,VWS V14.01,2013-10-11 06:01:00,
2013-10-11 02:06:00,57.1,52.6,30.06,NE,34,1.0,3.0,85,0.00,,,0.00,VWS V14.01,2013-10-11 06:06:00,
2013-10-11 02:11:00,57.1,52.6,30.06,NE,34,1.0,3.0,85,0.00,,,0.00,VWS V14.01,2013-10-11 06:11:00,
2013-10-11 02:16:00,57.2,52.7,30.06,NE,34,1.0,4.0,85,0.00,,,0.00,VWS V14.01,2013-10-11 06:16:00,
2013-10-11 02:21:00,57.2,52.7,30.06,NE,55,3.0,5.0,85,0.00,,,0.00,VWS V14.01,2013-10-11 06:21:00,
2013-10-11 02:26:00,57.2,52.7,30.06,NE,54,0.0,3.0,85,0.00,,,0.00,VWS V14.01,2013-10-11 06:26:00,
2013-10-11 02:31:00,57.2,52.7,30.06,NE,54,0.0,3.0,85,0.00,,,0.00,VWS V14.01,2013-10-11 06:31:00,
2013-10-11 02:36:00,57.2,52.7,30.06,ENE,62,0.0,4.0,85,0.00,,,0.00,VWS V14.01,2013-10-11 06:36:00,
2013-10-11 02:41:00,57.2,52.7,30.06,ENE,62,0.0,4.0,85,0.00,,,0.00,VWS V14.01,2013-10-11 06:41:00,
2013-10-11 02:46:00,57.2,52.7,30.05,ENE,62,0.0,1.0,85,0.00,,,0.00,VWS V14.01,2013-10-11 06:46:00,
2013-10-11 02:51:00,57.2,52.7,30.05,NE,50,1.0,2.0,85,0.00,,,0.00,VWS V14.01,2013-10-11 06:51:00,
2013-10-11 02:56:00,57.1,52.6,30.05,NE,34,0.0,4.0,85,0.00,,,0.00,VWS V14.01,2013-10-11 06:56:00,
2013-10-11 03:01:00,57.0,52.5,30.04,NE,39,2.0,4.0,85,0.00,,,0.00,VWS V14.01,2013-10-11 07:01:00,
2013-10-11 03:06:00,56.9,52.4,30.04,NE,50,0.0,3.0,85,0.00,,,0.00,VWS V14.01,2013-10-11 07:06:00,
2013-10-11 03:11:00,56.8,52.3,30.04,NE,50,0.0,3.0,85,0.00,,,0.00,VWS V14.01,2013-10-11 07:11:00,
2013-10-11 03:16:00,56.7,52.2,30.03,ENE,59,0.0,2.0,85,0.00,,,0.00,VWS V14.01,2013-10-11 07:16:00,
2013-10-11 03:21:00,56.6,52.2,30.03,NE,36,0.0,3.0,85,0.00,,,0.00,VWS V14.01,2013-10-11 07:21:00,
2013-10-11 03:26:00,56.4,52.0,30.03,NE,36,0.0,2.0,85,0.00,,,0.00,VWS V14.01,2013-10-11 07:26:00,
2013-10-11 03:31:00,56.3,51.9,30.02,NE,36,0.0,2.0,85,0.00,,,0.00,VWS V14.01,2013-10-11 07:31:00,
2013-10-11 03:36:00,56.2,51.8,30.02,NE,36,0.0,2.0,85,0.00,,,0.00,VWS V14.01,2013-10-11 07:36:00,
2013-10-11 03:41:00,56.0,51.6,30.02,NE,36,0.0,4.0,85,0.00,,,0.00,VWS V14.01,2013-10-11 07:41:00,
2013-10-11 03:46:00,55.9,51.8,30.02,ENE,60,0.0,3.0,86,0.00,,,0.00,VWS V14.01,2013-10-11 07:46:00,
2013-10-11 03:51:00,55.9,51.8,30.02,ENE,60,2.0,3.0,86,0.00,,,0.00,VWS V14.01,2013-10-11 07:51:00,
2013-10-11 03:56:00,55.9,51.8,30.02,ENE,59,2.0,3.0,86,0.00,,,0.00,VWS V14.01,2013-10-11 07:56:00,
2013-10-11 04:01:00,55.9,51.8,30.02,NE,52,0.0,4.0,86,0.00,,,0.00,VWS V14.01,2013-10-11 08:01:00,
2013-10-11 04:06:00,56.0,52.2,30.02,NE,52,1.0,2.0,87,0.00,,,0.00,VWS V14.01,2013-10-11 08:06:00,
2013-10-11 04:11:00,56.1,52.3,30.02,NE,52,1.0,2.0,87,0.00,,,0.00,VWS V14.01,2013-10-11 08:11:00,
2013-10-11 04:16:00,56.2,52.4,30.02,East,87,3.0,4.0,87,0.00,,,0.00,VWS V14.01,2013-10-11 08:16:00,
2013-10-11 04:21:00,56.3,52.5,30.02,East,85,0.0,4.0,87,0.00,,,0.00,VWS V14.01,2013-10-11 08:21:00,
2013-10-11 04:26:00,56.4,52.6,30.02,ENE,69,0.0,1.0,87,0.00,,,0.00,VWS V14.01,2013-10-11 08:26:00,
2013-10-11 04:31:00,56.5,52.7,30.03,ENE,69,0.0,2.0,87,0.00,,,0.00,VWS V14.01,2013-10-11 08:31:00,
2013-10-11 04:36:00,56.6,52.8,30.03,ENE,69,0.0,1.0,87,0.00,,,0.00,VWS V14.01,2013-10-11 08:36:00,
2013-10-11 04:41:00,56.6,52.8,30.03,ENE,66,1.0,3.0,87,0.00,,,0.00,VWS V14.01,2013-10-11 08:41:00,
2013-10-11 04:46:00,56.7,52.9,30.03,NE,50,1.0,2.0,87,0.00,,,0.00,VWS V14.01,2013-10-11 08:46:00,
2013-10-11 04:51:00,56.7,52.9,30.03,NE,50,0.0,3.0,87,0.00,,,0.00,VWS V14.01,2013-10-11 08:51:00,
2013-10-11 04:56:00,56.7,52.9,30.03,NE,39,0.0,4.0,87,0.00,,,0.00,VWS V14.01,2013-10-11 08:56:00,
2013-10-11 05:01:00,56.7,52.9,30.02,NE,37,1.0,4.0,87,0.00,,,0.00,VWS V14.01,2013-10-11 09:01:00,
2013-10-11 05:06:00,56.7,52.9,30.02,NE,44,1.0,4.0,87,0.00,,,0.00,VWS V14.01,2013-10-11 09:06:00,
2013-10-11 05:11:00,56.7,52.9,30.02,NE,34,1.0,4.0,87,0.00,,,0.00,VWS V14.01,2013-10-11 09:11:00,
2013-10-11 05:16:00,56.7,52.9,30.02,NE,49,0.0,3.0,87,0.00,,,0.00,VWS V14.01,2013-10-11 09:16:00,
2013-10-11 05:21:00,56.8,53.0,30.02,NE,49,0.0,5.0,87,0.00,,,0.00,VWS V14.01,2013-10-11 09:21:00,
2013-10-11 05:26:00,56.8,53.0,30.02,NE,53,2.0,6.0,87,0.00,,,0.00,VWS V14.01,2013-10-11 09:26:00,
2013-10-11 05:31:00,56.8,53.0,30.02,NE,42,4.0,6.0,87,0.00,,,0.00,VWS V14.01,2013-10-11 09:31:00,
2013-10-11 05:36:00,56.8,53.0,30.02,NE,53,0.0,6.0,87,0.00,,,0.00,VWS V14.01,2013-10-11 09:36:00,
2013-10-11 05:41:00,56.9,53.4,30.02,NE,49,4.0,6.0,88,0.00,,,0.00,VWS V14.01,2013-10-11 09:41:00,
2013-10-11 05:46:00,57.0,53.5,30.02,NE,49,0.0,4.0,88,0.00,,,0.00,VWS V14.01,2013-10-11 09:46:00,
2013-10-11 05:51:00,57.1,53.6,30.02,NE,46,0.0,4.0,88,0.00,,,0.00,VWS V14.01,2013-10-11 09:51:00,
2013-10-11 05:56:00,57.1,53.6,30.02,NE,44,1.0,4.0,88,0.00,,,0.00,VWS V14.01,2013-10-11 09:56:00,
2013-10-11 06:01:00,57.2,53.7,30.03,NNE,23,1.0,5.0,88,0.00,,,0.00,VWS V14.01,2013-10-11 10:01:00,
2013-10-11 06:06:00,57.3,54.1,30.03,NE,38,1.0,4.0,89,0.00,,,0.00,VWS V14.01,2013-10-11 10:06:00,
2013-10-11 06:11:00,57.4,54.2,30.03,NE,55,0.0,5.0,89,0.00,,,0.00,VWS V14.01,2013-10-11 10:11:00,
2013-10-11 06:16:00,57.5,54.3,30.03,NE,42,2.0,4.0,89,0.00,,,0.00,VWS V14.01,2013-10-11 10:16:00,
2013-10-11 06:21:00,57.5,54.3,30.03,NE,40,1.0,4.0,89,0.00,,,0.00,VWS V14.01,2013-10-11 10:21:00,
2013-10-11 06:26:00,57.6,54.4,30.03,NE,42,0.0,3.0,89,0.00,,,0.00,VWS V14.01,2013-10-11 10:26:00,
2013-10-11 06:31:00,57.6,54.4,30.03,NE,51,0.0,5.0,89,0.00,,,0.00,VWS V14.01,2013-10-11 10:31:00,
2013-10-11 06:36:00,57.7,54.5,30.03,NE,40,0.0,4.0,89,0.00,,,0.00,VWS V14.01,2013-10-11 10:36:00,
2013-10-11 06:41:00,57.8,54.6,30.03,NE,51,0.0,4.0,89,0.00,,,0.00,VWS V14.01,2013-10-11 10:41:00,
2013-10-11 06:46:00,57.8,54.6,30.03,NE,48,0.0,3.0,89,0.00,,,0.00,VWS V14.01,2013-10-11 10:46:00,
2013-10-11 06:51:00,57.8,54.6,30.03,NE,49,0.0,3.0,89,0.00,,,0.00,VWS V14.01,2013-10-11 10:51:00,
2013-10-11 06:56:00,57.8,54.6,30.03,NE,46,2.0,3.0,89,0.00,,,0.00,VWS V14.01,2013-10-11 10:56:00,
2013-10-11 07:01:00,57.8,54.6,30.03,NE,47,0.0,3.0,89,0.00,,,0.00,VWS V14.01,2013-10-11 11:01:00,
2013-10-11 07:06:00,57.8,54.3,30.03,NE,47,0.0,2.0,88,0.00,,,0.00,VWS V14.01,2013-10-11 11:06:00,
2013-10-11 07:11:00,57.7,54.2,30.03,NE,38,0.0,4.0,88,0.00,,,0.00,VWS V14.01,2013-10-11 11:11:00,
2013-10-11 07:16:00,57.7,54.2,30.03,NE,38,0.0,3.0,88,0.00,,,0.00,VWS V14.01,2013-10-11 11:16:00,
2013-10-11 07:20:00,57.7,54.2,30.03,NE,39,2.0,3.0,88,0.00,,,0.00,VWS V14.01,2013-10-11 11:20:00,
2013-10-11 07:25:00,57.7,54.2,30.03,NE,39,1.0,3.0,88,0.00,,,0.00,VWS V14.01,2013-10-11 11:25:00,
2013-10-11 07:30:00,57.7,54.2,30.04,NE,39,1.0,3.0,88,0.00,,,0.00,VWS V14.01,2013-10-11 11:30:00,
2013-10-11 07:35:00,57.6,54.4,30.04,NE,40,0.0,4.0,89,0.00,,,0.00,VWS V14.01,2013-10-11 11:35:00,
2013-10-11 07:40:00,57.7,54.5,30.04,NE,40,1.0,4.0,89,0.00,,,0.00,VWS V14.01,2013-10-11 11:40:00,
2013-10-11 07:45:00,57.7,54.5,30.04,NE,42,0.0,3.0,89,0.00,,,0.00,VWS V14.01,2013-10-11 11:45:00,
2013-10-11 07:50:00,57.8,54.6,30.04,NE,42,0.0,3.0,89,0.00,,,0.00,VWS V14.01,2013-10-11 11:50:00,
2013-10-11 07:55:00,57.8,54.6,30.04,NE,42,0.0,1.0,89,0.00,,,0.00,VWS V14.01,2013-10-11 11:55:00,
2013-10-11 08:00:00,57.8,54.6,30.04,NE,42,0.0,1.0,89,0.00,,,0.00,VWS V14.01,2013-10-11 12:00:00,
2013-10-11 08:05:00,57.9,55.0,30.05,NE,43,1.0,1.0,90,0.00,,,0.00,VWS V14.01,2013-10-11 12:05:00,
2013-10-11 08:10:00,58.0,54.8,30.05,NE,43,0.0,1.0,89,0.00,,,0.00,VWS V14.01,2013-10-11 12:10:00,
2013-10-11 08:15:00,58.1,54.9,30.05,NE,43,0.0,1.0,89,0.00,,,0.00,VWS V14.01,2013-10-11 12:15:00,
2013-10-11 08:20:00,58.1,54.9,30.05,NE,43,1.0,2.0,89,0.00,,,0.00,VWS V14.01,2013-10-11 12:20:00,
2013-10-11 08:25:00,58.2,55.0,30.05,NE,43,0.0,2.0,89,0.00,,,0.00,VWS V14.01,2013-10-11 12:25:00,
2013-10-11 08:30:00,58.2,55.3,30.05,NE,44,0.0,2.0,90,0.00,,,0.00,VWS V14.01,2013-10-11 12:30:00,
2013-10-11 08:35:00,58.2,55.0,30.05,NE,44,2.0,3.0,89,0.00,,,0.00,VWS V14.01,2013-10-11 12:35:00,
2013-10-11 08:40:00,58.3,55.1,30.05,NE,44,2.0,4.0,89,0.00,,,0.00,VWS V14.01,2013-10-11 12:40:00,
2013-10-11 08:45:00,58.3,55.1,30.05,NE,43,0.0,3.0,89,0.00,,,0.00,VWS V14.01,2013-10-11 12:45:00,
2013-10-11 08:50:00,58.4,55.2,30.05,NE,42,3.0,9.0,89,0.00,,,0.00,VWS V14.01,2013-10-11 12:50:00,
2013-10-11 08:55:00,58.4,55.2,30.05,NE,49,2.0,4.0,89,0.00,,,0.00,VWS V14.01,2013-10-11 12:55:00,
2013-10-11 09:00:00,58.4,55.2,30.05,NE,40,3.0,4.0,89,0.00,,,0.00,VWS V14.01,2013-10-11 13:00:00,
2013-10-11 09:05:00,58.4,55.2,30.05,NE,51,3.0,3.0,89,0.00,,,0.00,VWS V14.01,2013-10-11 13:05:00,
2013-10-11 09:10:00,58.5,55.3,30.05,ENE,64,2.0,7.0,89,0.00,,,0.00,VWS V14.01,2013-10-11 13:10:00,
2013-10-11 09:15:00,58.7,55.5,30.05,NE,48,0.0,2.0,89,0.00,,,0.00,VWS V14.01,2013-10-11 13:15:00,
2013-10-11 09:20:00,58.8,55.6,30.05,NE,44,0.0,2.0,89,0.00,,,0.00,VWS V14.01,2013-10-11 13:20:00,
2013-10-11 09:25:00,58.7,55.2,30.05,NE,41,0.0,1.0,88,0.00,,,0.00,VWS V14.01,2013-10-11 13:25:00,
2013-10-11 09:30:00,58.4,54.2,30.05,NE,41,0.0,1.0,86,0.00,,,0.00,VWS V14.01,2013-10-11 13:30:00,
2013-10-11 09:35:00,58.2,53.7,30.05,ENE,61,0.0,4.0,85,0.00,,,0.00,VWS V14.01,2013-10-11 13:35:00,
2013-10-11 09:40:00,57.8,53.3,30.05,ENE,61,0.0,4.0,85,0.00,,,0.00,VWS V14.01,2013-10-11 13:40:00,
2013-10-11 09:45:00,57.7,53.2,30.05,NE,53,0.0,2.0,85,0.00,,,0.00,VWS V14.01,2013-10-11 13:45:00,
2013-10-11 09:50:00,57.5,52.7,30.05,NE,55,0.0,2.0,84,0.00,,,0.00,VWS V14.01,2013-10-11 13:50:00,
2013-10-11 09:55:00,57.6,53.1,30.05,NE,55,0.0,2.0,85,0.00,,,0.00,VWS V14.01,2013-10-11 13:55:00,
2013-10-11 10:00:00,57.7,53.2,30.05,NNE,28,1.0,2.0,85,0.00,,,0.00,VWS V14.01,2013-10-11 14:00:00,
2013-10-11 10:05:00,57.9,53.4,30.05,NNE,28,2.0,2.0,85,0.00,,,0.00,VWS V14.01,2013-10-11 14:05:00,
2013-10-11 10:10:00,58.1,53.6,30.05,NNE,28,0.0,2.0,85,0.00,,,0.00,VWS V14.01,2013-10-11 14:10:00,
2013-10-11 10:15:00,58.2,53.7,30.05,NNE,30,0.0,1.0,85,0.00,,,0.00,VWS V14.01,2013-10-11 14:15:00,
2013-10-11 10:20:00,58.4,53.9,30.05,NNE,30,0.0,1.0,85,0.00,,,0.00,VWS V14.01,2013-10-11 14:20:00,
2013-10-11 10:25:00,58.4,53.6,30.05,NNE,31,0.0,1.0,84,0.00,,,0.00,VWS V14.01,2013-10-11 14:25:00,
2013-10-11 10:30:00,58.4,53.6,30.05,NNE,31,0.0,1.0,84,0.00,,,0.00,VWS V14.01,2013-10-11 14:30:00,
2013-10-11 10:35:00,58.4,53.3,30.05,NNE,31,0.0,1.0,83,0.00,,,0.00,VWS V14.01,2013-10-11 14:35:00,
2013-10-11 10:40:00,58.5,53.4,30.05,NNE,32,0.0,1.0,83,0.00,,,0.00,VWS V14.01,2013-10-11 14:40:00,
2013-10-11 10:45:00,58.6,53.1,30.05,NNE,32,0.0,1.0,82,0.00,,,0.00,VWS V14.01,2013-10-11 14:45:00,
2013-10-11 10:50:00,58.8,53.7,30.05,NE,36,0.0,2.0,83,0.00,,,0.00,VWS V14.01,2013-10-11 14:50:00,
2013-10-11 10:55:00,59.1,54.0,30.05,NE,36,0.0,2.0,83,0.00,,,0.00,VWS V14.01,2013-10-11 14:55:00,
2013-10-11 11:00:00,59.4,54.2,30.05,NE,37,1.0,2.0,83,0.00,,,0.00,VWS V14.01,2013-10-11 15:00:00,
2013-10-11 11:05:00,59.6,54.4,30.06,NE,37,1.0,2.0,83,0.00,,,0.00,VWS V14.01,2013-10-11 15:05:00,
2013-10-11 11:10:00,59.9,54.7,30.06,ENE,70,0.0,3.0,83,0.00,,,0.00,VWS V14.01,2013-10-11 15:10:00,
2013-10-11 11:15:00,60.2,55.0,30.06,NE,53,0.0,2.0,83,0.00,,,0.00,VWS V14.01,2013-10-11 15:15:00,
2013-10-11 11:20:00,60.4,55.5,30.05,NE,42,3.0,4.0,84,0.00,,,0.00,VWS V14.01,2013-10-11 15:20:00,
2013-10-11 11:25:00,60.7,55.8,30.05,NE,50,2.0,5.0,84,0.00,,,0.00,VWS V14.01,2013-10-11 15:25:00,
2013-10-11 11:30:00,60.9,56.0,30.05,NE,42,1.0,5.0,84,0.00,,,0.00,VWS V14.01,2013-10-11 15:30:00,
2013-10-11 11:35:00,61.2,56.3,30.05,NE,40,5.0,6.0,84,0.00,,,0.00,VWS V14.01,2013-10-11 15:35:00,
2013-10-11 11:40:00,61.4,56.5,30.05,NE,36,0.0,6.0,84,0.00,,,0.00,VWS V14.01,2013-10-11 15:40:00,
2013-10-11 11:45:00,61.6,56.7,30.05,NNE,17,1.0,5.0,84,0.00,,,0.00,VWS V14.01,2013-10-11 15:45:00,
2013-10-11 11:50:00,61.8,56.9,30.05,NE,42,3.0,5.0,84,0.00,,,0.00,VWS V14.01,2013-10-11 15:50:00,
2013-10-11 11:55:00,61.9,57.0,30.05,NNE,33,3.0,4.0,84,0.00,,,0.00,VWS V14.01,2013-10-11 15:55:00,
2013-10-11 12:00:00,62.0,57.1,30.05,NE,38,3.0,4.0,84,0.00,,,0.00,VWS V14.01,2013-10-11 16:00:00,
2013-10-11 12:05:00,62.2,57.3,30.05,ENE,74,4.0,5.0,84,0.00,,,0.00,VWS V14.01,2013-10-11 16:05:00,
2013-10-11 12:10:00,62.2,57.0,30.05,North,9,4.0,6.0,83,0.00,,,0.00,VWS V14.01,2013-10-11 16:10:00,
2013-10-11 12:15:00,62.3,57.4,30.05,NNE,22,5.0,6.0,84,0.00,,,0.00,VWS V14.01,2013-10-11 16:15:00,
2013-10-11 12:20:00,62.4,57.5,30.04,NE,52,0.0,6.0,84,0.00,,,0.00,VWS V14.01,2013-10-11 16:20:00,
2013-10-11 12:25:00,62.5,57.6,30.04,NNE,14,0.0,3.0,84,0.00,,,0.00,VWS V14.01,2013-10-11 16:25:00,
2013-10-11 12:30:00,62.5,57.6,30.04,NE,37,0.0,6.0,84,0.00,,,0.00,VWS V14.01,2013-10-11 16:30:00,
2013-10-11 12:35:00,62.6,57.7,30.05,NE,39,2.0,3.0,84,0.00,,,0.00,VWS V14.01,2013-10-11 16:35:00,
2013-10-11 12:40:00,62.6,57.7,30.05,NE,44,0.0,3.0,84,0.00,,,0.00,VWS V14.01,2013-10-11 16:40:00,
2013-10-11 12:45:00,62.6,57.7,30.05,NE,46,3.0,3.0,84,0.00,,,0.00,VWS V14.01,2013-10-11 16:45:00,
2013-10-11 12:50:00,62.5,57.6,30.05,NE,46,0.0,3.0,84,0.00,,,0.00,VWS V14.01,2013-10-11 16:50:00,
2013-10-11 12:55:00,62.6,57.7,30.05,NE,35,3.0,6.0,84,0.00,,,0.00,VWS V14.01,2013-10-11 16:55:00,
2013-10-11 13:00:00,62.6,58.0,30.05,ENE,59,0.0,6.0,85,0.00,,,0.00,VWS V14.01,2013-10-11 17:00:00,
2013-10-11 13:05:00,62.7,58.1,30.03,ENE,59,2.0,7.0,85,0.00,,,0.00,VWS V14.01,2013-10-11 17:05:00,
2013-10-11 13:10:00,62.7,58.1,30.03,North,9,3.0,7.0,85,0.00,,,0.00,VWS V14.01,2013-10-11 17:10:00,
2013-10-11 13:15:00,62.7,58.1,30.03,NE,55,0.0,8.0,85,0.00,,,0.00,VWS V14.01,2013-10-11 17:15:00,
2013-10-11 13:20:00,62.6,58.0,30.03,NE,45,0.0,8.0,85,0.00,,,0.00,VWS V14.01,2013-10-11 17:20:00,
2013-10-11 13:25:00,62.6,58.0,30.03,NE,44,1.0,6.0,85,0.00,,,0.00,VWS V14.01,2013-10-11 17:25:00,
2013-10-11 13:30:00,62.5,57.9,30.03,NE,44,2.0,6.0,85,0.00,,,0.00,VWS V14.01,2013-10-11 17:30:00,
2013-10-11 13:35:00,62.5,57.9,30.03,NE,45,0.0,2.0,85,0.00,,,0.00,VWS V14.01,2013-10-11 17:35:00,
2013-10-11 13:40:00,62.4,57.8,30.03,NE,50,3.0,4.0,85,0.00,,,0.00,VWS V14.01,2013-10-11 17:40:00,
2013-10-11 13:45:00,62.4,57.8,30.03,NE,50,1.0,1.0,85,0.00,,,0.00,VWS V14.01,2013-10-11 17:45:00,
2013-10-11 13:50:00,62.4,57.8,30.03,ENE,59,2.0,5.0,85,0.00,,,0.00,VWS V14.01,2013-10-11 17:50:00,
2013-10-11 13:55:00,62.3,57.7,30.03,NE,36,0.0,4.0,85,0.00,,,0.00,VWS V14.01,2013-10-11 17:55:00,
2013-10-11 14:00:00,62.3,57.7,30.03,NE,44,3.0,4.0,85,0.00,,,0.00,VWS V14.01,2013-10-11 18:00:00,
2013-10-11 14:05:00,62.3,57.7,30.02,NE,43,1.0,3.0,85,0.00,,,0.00,VWS V14.01,2013-10-11 18:05:00,
2013-10-11 14:10:00,62.3,57.7,30.02,NNE,21,3.0,5.0,85,0.00,,,0.00,VWS V14.01,2013-10-11 18:10:00,
2013-10-11 14:15:00,62.3,57.7,30.02,NE,42,2.0,7.0,85,0.00,,,0.00,VWS V14.01,2013-10-11 18:15:00,
2013-10-11 14:20:00,62.3,58.1,30.03,NE,42,5.0,7.0,86,0.00,,,0.00,VWS V14.01,2013-10-11 18:20:00,
2013-10-11 14:25:00,62.2,58.0,30.03,NE,51,0.0,5.0,86,0.00,,,0.00,VWS V14.01,2013-10-11 18:25:00,
2013-10-11 14:30:00,62.2,58.0,30.03,NE,43,1.0,5.0,86,0.00,,,0.00,VWS V14.01,2013-10-11 18:30:00,
2013-10-11 14:35:00,62.2,57.6,30.02,NE,37,0.0,7.0,85,0.00,,,0.00,VWS V14.01,2013-10-11 18:35:00,
2013-10-11 14:40:00,62.3,58.1,30.02,NE,39,0.0,7.0,86,0.00,,,0.00,VWS V14.01,2013-10-11 18:40:00,
2013-10-11 14:45:00,62.3,58.1,30.02,NE,40,1.0,3.0,86,0.00,,,0.00,VWS V14.01,2013-10-11 18:45:00,
2013-10-11 14:50:00,62.4,58.2,30.02,NE,44,0.0,4.0,86,0.00,,,0.00,VWS V14.01,2013-10-11 18:50:00,
2013-10-11 14:55:00,62.5,58.3,30.02,ENE,70,1.0,7.0,86,0.00,,,0.00,VWS V14.01,2013-10-11 18:55:00,
2013-10-11 15:00:00,62.5,57.9,30.02,NE,42,3.0,7.0,85,0.00,,,0.00,VWS V14.01,2013-10-11 19:00:00,
2013-10-11 15:05:00,62.5,58.3,30.02,NE,40,1.0,4.0,86,0.00,,,0.00,VWS V14.01,2013-10-11 19:05:00,
2013-10-11 15:10:00,62.5,58.3,30.02,NE,40,1.0,4.0,86,0.00,,,0.00,VWS V14.01,2013-10-11 19:10:00,
2013-10-11 15:15:00,62.6,58.4,30.02,ENE,78,4.0,4.0,86,0.00,,,0.00,VWS V14.01,2013-10-11 19:15:00,
2013-10-11 15:20:00,62.5,58.3,30.02,NNE,30,0.0,4.0,86,0.00,,,0.00,VWS V14.01,2013-10-11 19:20:00,
2013-10-11 15:25:00,62.5,58.3,30.02,NE,42,0.0,4.0,86,0.00,,,0.00,VWS V14.01,2013-10-11 19:25:00,
2013-10-11 15:30:00,62.5,58.3,30.02,NE,40,0.0,4.0,86,0.00,,,0.00,VWS V14.01,2013-10-11 19:30:00,
2013-10-11 15:35:00,62.5,58.6,30.02,NE,40,0.0,3.0,87,0.00,,,0.00,VWS V14.01,2013-10-11 19:35:00,
2013-10-11 15:40:00,62.4,58.5,30.02,NE,51,2.0,5.0,87,0.00,,,0.00,VWS V14.01,2013-10-11 19:40:00,
2013-10-11 15:45:00,62.4,58.5,30.02,NE,42,2.0,2.0,87,0.00,,,0.00,VWS V14.01,2013-10-11 19:45:00,
2013-10-11 15:50:00,62.4,58.5,30.02,NE,51,3.0,4.0,87,0.00,,,0.00,VWS V14.01,2013-10-11 19:50:00,
2013-10-11 15:55:00,62.4,58.5,30.02,NE,46,3.0,4.0,87,0.00,,,0.00,VWS V14.01,2013-10-11 19:55:00,
2013-10-11 16:00:00,62.4,58.5,30.02,NE,36,2.0,4.0,87,0.00,,,0.00,VWS V14.01,2013-10-11 20:00:00,
2013-10-11 16:05:00,62.4,58.5,30.02,NE,36,0.0,2.0,87,0.00,,,0.00,VWS V14.01,2013-10-11 20:05:00,
2013-10-11 16:10:00,62.4,58.5,30.02,NE,50,1.0,3.0,87,0.00,,,0.00,VWS V14.01,2013-10-11 20:10:00,
2013-10-11 16:15:00,62.5,58.6,30.02,NE,53,0.0,1.0,87,0.00,,,0.00,VWS V14.01,2013-10-11 20:15:00,
2013-10-11 16:20:00,62.5,58.6,30.02,NE,42,0.0,3.0,87,0.00,,,0.00,VWS V14.01,2013-10-11 20:20:00,
2013-10-11 16:25:00,62.5,58.6,30.02,NE,42,0.0,2.0,87,0.00,,,0.00,VWS V14.01,2013-10-11 20:25:00,
2013-10-11 16:30:00,62.5,58.6,30.02,NE,42,1.0,4.0,87,0.00,,,0.00,VWS V14.01,2013-10-11 20:30:00,
2013-10-11 16:35:00,62.5,58.9,30.03,NE,42,0.0,2.0,88,0.00,,,0.00,VWS V14.01,2013-10-11 20:35:00,
2013-10-11 16:40:00,62.4,58.8,30.03,NE,44,0.0,4.0,88,0.00,,,0.00,VWS V14.01,2013-10-11 20:40:00,
2013-10-11 16:45:00,62.3,58.7,30.03,NE,49,0.0,3.0,88,0.00,,,0.00,VWS V14.01,2013-10-11 20:45:00,
2013-10-11 16:50:00,62.3,58.7,30.03,NE,49,0.0,3.0,88,0.00,,,0.00,VWS V14.01,2013-10-11 20:50:00,
2013-10-11 16:55:00,62.2,58.6,30.03,NE,49,0.0,2.0,88,0.00,,,0.00,VWS V14.01,2013-10-11 20:55:00,
2013-10-11 17:00:00,62.2,58.6,30.03,NE,46,0.0,4.0,88,0.00,,,0.00,VWS V14.01,2013-10-11 21:00:00,
2013-10-11 17:05:00,62.3,58.7,30.03,NE,46,0.0,3.0,88,0.00,,,0.00,VWS V14.01,2013-10-11 21:05:00,
2013-10-11 17:10:00,62.3,58.4,30.03,NE,46,0.0,3.0,87,0.00,,,0.00,VWS V14.01,2013-10-11 21:10:00,
2013-10-11 17:15:00,62.3,58.4,30.03,NE,46,1.0,1.0,87,0.00,,,0.00,VWS V14.01,2013-10-11 21:15:00,
2013-10-11 17:20:00,62.3,58.4,30.03,NE,46,0.0,2.0,87,0.00,,,0.00,VWS V14.01,2013-10-11 21:20:00,
2013-10-11 17:25:00,62.4,58.5,30.03,NE,46,0.0,2.0,87,0.00,,,0.00,VWS V14.01,2013-10-11 21:25:00,
2013-10-11 17:30:00,62.4,58.5,30.03,NE,46,0.0,2.0,87,0.00,,,0.00,VWS V14.01,2013-10-11 21:30:00,
2013-10-11 17:35:00,62.4,58.2,30.04,NE,46,0.0,1.0,86,0.00,,,0.00,VWS V14.01,2013-10-11 21:35:00,
2013-10-11 17:40:00,62.5,58.3,30.04,NE,46,0.0,1.0,86,0.00,,,0.00,VWS V14.01,2013-10-11 21:40:00,
2013-10-11 17:45:00,62.5,58.3,30.04,NE,46,0.0,0.0,86,0.00,,,0.00,VWS V14.01,2013-10-11 21:45:00,
2013-10-11 17:50:00,62.5,58.3,30.05,NE,46,0.0,1.0,86,0.00,,,0.00,VWS V14.01,2013-10-11 21:50:00,
2013-10-11 17:55:00,62.5,58.6,30.05,NE,46,0.0,0.0,87,0.00,,,0.00,VWS V14.01,2013-10-11 21:55:00,
2013-10-11 18:00:00,62.5,58.3,30.05,NE,46,0.0,1.0,86,0.00,,,0.00,VWS V14.01,2013-10-11 22:00:00,
2013-10-11 18:05:00,62.5,58.3,30.05,NE,46,0.0,0.0,86,0.00,,,0.00,VWS V14.01,2013-10-11 22:05:00,
2013-10-11 18:10:00,62.5,58.3,30.05,NE,46,0.0,2.0,86,0.00,,,0.00,VWS V14.01,2013-10-11 22:10:00,
2013-10-11 18:15:00,62.5,58.3,30.05,NE,46,0.0,0.0,86,0.00,,,0.00,VWS V14.01,2013-10-11 22:15:00,
2013-10-11 18:20:00,62.5,58.6,30.05,NE,46,0.0,0.0,87,0.00,,,0.00,VWS V14.01,2013-10-11 22:20:00,
2013-10-11 18:25:00,62.5,58.3,30.05,NE,46,1.0,2.0,86,0.00,,,0.00,VWS V14.01,2013-10-11 22:25:00,
2013-10-11 18:30:00,62.5,58.3,30.05,NE,46,0.0,2.0,86,0.00,,,0.00,VWS V14.01,2013-10-11 22:30:00,
2013-10-11 18:35:00,62.6,58.4,30.05,NE,46,1.0,2.0,86,0.00,,,0.00,VWS V14.01,2013-10-11 22:35:00,
2013-10-11 18:40:00,62.6,58.4,30.05,NE,47,0.0,2.0,86,0.00,,,0.00,VWS V14.01,2013-10-11 22:40:00,
2013-10-11 18:45:00,62.6,58.4,30.05,NE,47,0.0,1.0,86,0.00,,,0.00,VWS V14.01,2013-10-11 22:45:00,
2013-10-11 18:50:00,62.6,58.4,30.06,NE,47,0.0,1.0,86,0.00,,,0.00,VWS V14.01,2013-10-11 22:50:00,
2013-10-11 18:55:00,62.6,58.4,30.06,NE,47,0.0,0.0,86,0.00,,,0.00,VWS V14.01,2013-10-11 22:55:00,
2013-10-11 19:00:00,62.7,58.5,30.06,NE,47,0.0,1.0,86,0.00,,,0.00,VWS V14.01,2013-10-11 23:00:00,
2013-10-11 19:05:00,62.7,58.5,30.06,NE,47,0.0,0.0,86,0.00,,,0.00,VWS V14.01,2013-10-11 23:05:00,
2013-10-11 19:10:00,62.7,58.5,30.06,NE,47,0.0,0.0,86,0.00,,,0.00,VWS V14.01,2013-10-11 23:10:00,
2013-10-11 19:15:00,62.7,58.5,30.06,NE,46,0.0,2.0,86,0.00,,,0.00,VWS V14.01,2013-10-11 23:15:00,
2013-10-11 19:20:00,62.7,58.5,30.06,NE,46,0.0,3.0,86,0.00,,,0.00,VWS V14.01,2013-10-11 23:20:00,
2013-10-11 19:25:00,62.8,58.6,30.06,NE,46,0.0,2.0,86,0.00,,,0.00,VWS V14.01,2013-10-11 23:25:00,
2013-10-11 19:30:00,62.8,58.6,30.06,NE,46,0.0,2.0,86,0.00,,,0.00,VWS V14.01,2013-10-11 23:30:00,
2013-10-11 19:35:00,62.8,58.6,30.06,NE,38,1.0,3.0,86,0.00,,,0.00,VWS V14.01,2013-10-11 23:35:00,
2013-10-11 19:40:00,62.8,58.6,30.06,NE,38,0.0,3.0,86,0.00,,,0.00,VWS V14.01,2013-10-11 23:40:00,
2013-10-11 19:45:00,62.7,58.5,30.06,NE,40,0.0,4.0,86,0.00,,,0.00,VWS V14.01,2013-10-11 23:45:00,
2013-10-11 19:50:00,62.7,58.5,30.06,NE,40,1.0,4.0,86,0.00,,,0.00,VWS V14.01,2013-10-11 23:50:00,
2013-10-11 19:55:00,62.7,58.5,30.06,NE,40,1.0,1.0,86,0.00,,,0.00,VWS V14.01,2013-10-11 23:55:00,
2013-10-11 20:00:00,62.6,58.4,30.06,NE,35,0.0,1.0,86,0.00,,,0.00,VWS V14.01,2013-10-12 00:00:00,
2013-10-11 20:05:00,62.6,58.4,30.06,NE,38,0.0,2.0,86,0.00,,,0.00,VWS V14.01,2013-10-12 00:05:00,
2013-10-11 20:10:00,62.5,58.3,30.06,NE,39,0.0,2.0,86,0.00,,,0.00,VWS V14.01,2013-10-12 00:10:00,
2013-10-11 20:15:00,62.5,58.3,30.06,NNE,26,1.0,3.0,86,0.00,,,0.00,VWS V14.01,2013-10-12 00:15:00,
2013-10-11 20:20:00,62.5,58.3,30.06,NNE,30,0.0,4.0,86,0.00,,,0.00,VWS V14.01,2013-10-12 00:20:00,
2013-10-11 20:25:00,62.5,58.3,30.06,NE,42,1.0,3.0,86,0.00,,,0.00,VWS V14.01,2013-10-12 00:25:00,
2013-10-11 20:30:00,62.6,58.4,30.06,NE,42,0.0,3.0,86,0.00,,,0.00,VWS V14.01,2013-10-12 00:30:00,
2013-10-11 20:35:00,62.6,58.4,30.06,NE,42,0.0,1.0,86,0.00,,,0.00,VWS V14.01,2013-10-12 00:35:00,
2013-10-11 20:40:00,62.7,58.5,30.06,NE,44,0.0,2.0,86,0.00,,,0.00,VWS V14.01,2013-10-12 00:40:00,
2013-10-11 20:45:00,62.8,58.2,30.06,NE,46,1.0,3.0,85,0.00,,,0.00,VWS V14.01,2013-10-12 00:45:00,
2013-10-11 20:50:00,62.9,58.3,30.06,NE,46,0.0,3.0,85,0.00,,,0.00,VWS V14.01,2013-10-12 00:50:00,
2013-10-11 20:55:00,62.9,58.3,30.06,NE,46,1.0,3.0,85,0.00,,,0.00,VWS V14.01,2013-10-12 00:55:00,
2013-10-11 21:00:00,62.9,58.3,30.06,NE,46,0.0,3.0,85,0.00,,,0.00,VWS V14.01,2013-10-12 01:00:00,
2013-10-11 21:05:00,62.9,58.3,30.06,NE,46,0.0,2.0,85,0.00,,,0.00,VWS V14.01,2013-10-12 01:05:00,
2013-10-11 21:10:00,62.9,58.3,30.06,NE,46,0.0,3.0,85,0.00,,,0.00,VWS V14.01,2013-10-12 01:10:00,
2013-10-11 21:15:00,62.9,58.3,30.06,NE,46,0.0,1.0,85,0.00,,,0.00,VWS V14.01,2013-10-12 01:15:00,
2013-10-11 21:20:00,62.9,58.3,30.07,NE,46,1.0,1.0,85,0.00,,,0.00,VWS V14.01,2013-10-12 01:20:00,
2013-10-11 21:25:00,62.9,58.3,30.07,NE,46,0.0,1.0,85,0.00,,,0.00,VWS V14.01,2013-10-12 01:25:00,
2013-10-11 21:30:00,62.9,58.3,30.07,NE,46,1.0,1.0,85,0.00,,,0.00,VWS V14.01,2013-10-12 01:30:00,
2013-10-11 21:35:00,63.0,58.4,30.08,NE,46,0.0,0.0,85,0.00,,,0.00,VWS V14.01,2013-10-12 01:35:00,
2013-10-11 21:40:00,63.0,58.1,30.08,NE,44,0.0,3.0,84,0.00,,,0.00,VWS V14.01,2013-10-12 01:40:00,
2013-10-11 21:45:00,63.0,58.4,30.08,NE,44,1.0,1.0,85,0.00,,,0.00,VWS V14.01,2013-10-12 01:45:00,
2013-10-11 21:50:00,63.0,58.1,30.08,NE,45,0.0,1.0,84,0.00,,,0.00,VWS V14.01,2013-10-12 01:50:00,
2013-10-11 21:55:00,63.1,58.2,30.08,NE,45,0.0,0.0,84,0.00,,,0.00,VWS V14.01,2013-10-12 01:55:00,
2013-10-11 22:00:00,63.1,58.2,30.08,NE,45,0.0,1.0,84,0.00,,,0.00,VWS V14.01,2013-10-12 02:00:00,
2013-10-11 22:05:00,63.1,58.2,30.09,NE,44,0.0,2.0,84,0.00,,,0.00,VWS V14.01,2013-10-12 02:05:00,
2013-10-11 22:10:00,63.1,58.2,30.09,NE,44,0.0,2.0,84,0.00,,,0.00,VWS V14.01,2013-10-12 02:10:00,
2013-10-11 22:15:00,63.1,58.2,30.09,NE,44,0.0,2.0,84,0.00,,,0.00,VWS V14.01,2013-10-12 02:15:00,
2013-10-11 22:20:00,63.0,58.1,30.09,NE,44,0.0,2.0,84,0.00,,,0.00,VWS V14.01,2013-10-12 02:20:00,
2013-10-11 22:25:00,63.0,58.1,30.09,NE,44,1.0,2.0,84,0.00,,,0.00,VWS V14.01,2013-10-12 02:25:00,
2013-10-11 22:30:00,62.9,58.0,30.09,NE,44,0.0,2.0,84,0.00,,,0.00,VWS V14.01,2013-10-12 02:30:00,
2013-10-11 22:35:00,62.8,57.9,30.09,NE,44,0.0,2.0,84,0.00,,,0.00,VWS V14.01,2013-10-12 02:35:00,
2013-10-11 22:40:00,62.8,57.9,30.09,NE,43,0.0,2.0,84,0.00,,,0.00,VWS V14.01,2013-10-12 02:40:00,
2013-10-11 22:45:00,62.7,57.8,30.09,NE,43,1.0,2.0,84,0.00,,,0.00,VWS V14.01,2013-10-12 02:45:00,
2013-10-11 22:50:00,62.7,57.8,30.09,NE,43,0.0,2.0,84,0.00,,,0.00,VWS V14.01,2013-10-12 02:50:00,
2013-10-11 22:55:00,62.7,57.8,30.09,NE,44,0.0,2.0,84,0.00,,,0.00,VWS V14.01,2013-10-12 02:55:00,
2013-10-11 23:00:00,62.6,57.7,30.09,NE,44,0.0,2.0,84,0.00,,,0.00,VWS V14.01,2013-10-12 03:00:00,
2013-10-11 23:05:00,62.5,57.6,30.09,NE,44,0.0,2.0,84,0.00,,,0.00,VWS V14.01,2013-10-12 03:05:00,
2013-10-11 23:10:00,62.5,57.9,30.09,NE,44,0.0,2.0,85,0.00,,,0.00,VWS V14.01,2013-10-12 03:10:00,
2013-10-11 23:15:00,62.4,57.8,30.09,NE,44,0.0,1.0,85,0.00,,,0.00,VWS V14.01,2013-10-12 03:15:00,
2013-10-11 23:20:00,62.2,57.6,30.08,NE,44,0.0,1.0,85,0.00,,,0.00,VWS V14.01,2013-10-12 03:20:00,
2013-10-11 23:25:00,62.1,57.5,30.08,NE,44,0.0,0.0,85,0.00,,,0.00,VWS V14.01,2013-10-12 03:25:00,
2013-10-11 23:30:00,62.0,57.5,30.08,NE,44,0.0,0.0,85,0.00,,,0.00,VWS V14.01,2013-10-12 03:30:00,
2013-10-11 23:35:00,61.9,57.3,30.08,NE,44,0.0,1.0,85,0.00,,,0.00,VWS V14.01,2013-10-12 03:35:00,
2013-10-11 23:40:00,61.7,57.2,30.08,NE,44,0.0,2.0,85,0.00,,,0.00,VWS V14.01,2013-10-12 03:40:00,
2013-10-11 23:45:00,61.6,57.4,30.08,NE,44,0.0,1.0,86,0.00,,,0.00,VWS V14.01,2013-10-12 03:45:00,
2013-10-11 23:50:00,61.5,57.0,30.07,NE,44,0.0,1.0,85,0.00,,,0.00,VWS V14.01,2013-10-12 03:50:00,
2013-10-11 23:55:00,61.4,56.9,30.07,NE,44,2.0,2.0,85,0.00,,,0.00,VWS V14.01,2013-10-12 03:55:00,